LEDSAT

Last updated on Mon Sep 15 2025 00:03:09 GMT+0000 (Coordinated Universal Time)

1 49069U 21073D 25256.97133377 .00188045 00000+0 96078-3 0 9999 2 49069 97.3766 343.6072 0002405 99.5495 260.6045 15.80829253226540
UTC large
Height (km)
Speed (km/s)
/
Latitude / Longitude
Inclination (degrees)
Orbital Period (minutes)
Azimuth
Elevation
Range (km)
Doppler Factor

Next 0 passes for location: London (51.5072 / 0.1276)

Sorry there are no passes over London.